Find Inmarsat 6 F1

NORAD ID: 50319 Int'l Des: 2021-128 Owner: INMRL Country: UK operational
HEOCIRCULARGSOGEO

Live-Position

3D-Globus wird geladen...

Über Inmarsat 6 F1

Beschreibung wird geladen...

Nächste Überflüge

Passes for default location (London). Set your location on the main map for personalized predictions.

Höhenverlauf

Loading altitude history...

Zweizeiliger Elementsatz

1 50319U 21128A 26106.95623179 -.00000164 00000-0 00000-0 0 9991
2 50319 0.0161 245.8152 0000432 319.4874 67.7911 1.00267975 15644
Epoch: 16. Apr. 2026 • Age: 10 hours

Aktueller Status

Höhe 35788.7 km
Geschwindigkeit 3.07 km/s
Subsatellitenpunkt -0.00°S, 83.74°E
Startdatum 22. Dez. 2021
Alter 4.3 years
Typ communications

Technische Details

Klassifizierung Payload
Masse 5470.00 kg
Trockenmasse 4000.00 kg
Gesamtmasse 5470.00 kg
Länge 9.00 m
Durchmesser 2.50 m
Spannweite 47.00 m
Form Box+dish+2 pan
Hersteller ADSUK
Bus-Typ Eurostar 3000EOR
Phasenstatus In Orbit
Besitzer/Staat INMRL/UK

Most Searched